Year,Month,Day,Hour,Minute,Value (Times are PST for temperature in C)
2014,09,13,00,00,12.80
2014,09,13,00,01,12.80
2014,09,13,00,02,12.80
2014,09,13,00,03,12.80
2014,09,13,00,04,12.70
2014,09,13,00,05,12.70
2014,09,13,00,06,12.70
2014,09,13,00,07,12.60
2014,09,13,00,08,12.60
2014,09,13,00,09,12.50
2014,09,13,00,10,12.50
2014,09,13,00,11,12.50
2014,09,13,00,12,12.50
2014,09,13,00,13,12.50
2014,09,13,00,14,12.50
2014,09,13,00,15,12.50
2014,09,13,00,16,12.50
2014,09,13,00,17,12.50
2014,09,13,00,18,12.60
2014,09,13,00,19,12.60
2014,09,13,00,20,12.60
2014,09,13,00,21,12.60
2014,09,13,00,22,12.50
2014,09,13,00,23,12.50
2014,09,13,00,24,12.50
2014,09,13,00,25,12.50
2014,09,13,00,26,12.40
2014,09,13,00,27,12.40
2014,09,13,00,28,12.30
2014,09,13,00,29,12.30
2014,09,13,00,30,12.30
2014,09,13,00,31,12.30
2014,09,13,00,32,12.20
2014,09,13,00,33,12.20
2014,09,13,00,34,12.20
2014,09,13,00,35,12.10
2014,09,13,00,36,12.10
2014,09,13,00,37,12.10
2014,09,13,00,38,12.00
2014,09,13,00,39,12.00
2014,09,13,00,40,12.00
2014,09,13,00,41,12.00
2014,09,13,00,42,11.90
2014,09,13,00,43,11.90
2014,09,13,00,44,11.90
2014,09,13,00,45,11.90
2014,09,13,00,46,11.80
2014,09,13,00,47,11.80
2014,09,13,00,48,11.80
2014,09,13,00,49,11.80
2014,09,13,00,50,11.80
2014,09,13,00,51,11.80
2014,09,13,00,52,11.80
2014,09,13,00,53,11.70
2014,09,13,00,54,11.70
2014,09,13,00,55,11.70
2014,09,13,00,56,11.60
2014,09,13,00,57,11.60
2014,09,13,00,58,11.60
2014,09,13,00,59,11.60
2014,09,13,01,00,11.60
2014,09,13,01,01,11.60
2014,09,13,01,02,11.60
2014,09,13,01,03,11.60
2014,09,13,01,04,11.60
2014,09,13,01,05,11.60
2014,09,13,01,06,11.60
2014,09,13,01,07,11.60
2014,09,13,01,08,11.60
2014,09,13,01,09,11.60
2014,09,13,01,10,11.60
2014,09,13,01,11,11.60
2014,09,13,01,12,11.60
2014,09,13,01,13,11.60
2014,09,13,01,14,11.60
2014,09,13,01,15,11.70
2014,09,13,01,16,11.70
2014,09,13,01,17,11.70
2014,09,13,01,18,11.70
2014,09,13,01,19,11.70
2014,09,13,01,20,11.70
2014,09,13,01,21,11.70
2014,09,13,01,22,11.60
2014,09,13,01,23,11.60
2014,09,13,01,24,11.60
2014,09,13,01,25,11.60
2014,09,13,01,26,11.60
2014,09,13,01,27,11.60
2014,09,13,01,28,11.60
2014,09,13,01,29,11.60
2014,09,13,01,30,11.60
2014,09,13,01,31,11.60
2014,09,13,01,32,11.60
2014,09,13,01,33,11.60
2014,09,13,01,34,11.60
2014,09,13,01,35,11.60
2014,09,13,01,36,11.60
2014,09,13,01,37,11.60
2014,09,13,01,38,11.60
2014,09,13,01,39,11.60
2014,09,13,01,40,11.50
2014,09,13,01,41,11.40
2014,09,13,01,42,11.40
2014,09,13,01,43,11.40
2014,09,13,01,44,11.40
2014,09,13,01,45,11.40
2014,09,13,01,46,11.40
2014,09,13,01,47,11.40
2014,09,13,01,48,11.40
2014,09,13,01,49,11.40
2014,09,13,01,50,11.40
2014,09,13,01,51,11.40
2014,09,13,01,52,11.40
2014,09,13,01,53,11.40
2014,09,13,01,54,11.40
2014,09,13,01,55,11.40
2014,09,13,01,56,11.40
2014,09,13,01,57,11.40
2014,09,13,01,58,11.40
2014,09,13,01,59,11.40
2014,09,13,02,00,11.40
2014,09,13,02,01,11.40
2014,09,13,02,02,11.50
2014,09,13,02,03,11.60
2014,09,13,02,04,11.60
2014,09,13,02,05,11.60
2014,09,13,02,06,11.70
2014,09,13,02,07,11.70
2014,09,13,02,08,11.80
2014,09,13,02,09,11.90
2014,09,13,02,10,12.00
2014,09,13,02,11,12.20
2014,09,13,02,12,12.30
2014,09,13,02,13,12.30
2014,09,13,02,14,12.40
2014,09,13,02,15,12.50
2014,09,13,02,16,12.50
2014,09,13,02,17,12.50
2014,09,13,02,18,12.60
2014,09,13,02,19,12.60
2014,09,13,02,20,12.60
2014,09,13,02,21,12.60
2014,09,13,02,22,12.60
2014,09,13,02,23,12.50
2014,09,13,02,24,12.50
2014,09,13,02,25,12.50
2014,09,13,02,26,12.40
2014,09,13,02,27,12.30
2014,09,13,02,28,12.30
2014,09,13,02,29,12.30
2014,09,13,02,30,12.20
2014,09,13,02,31,12.20
2014,09,13,02,32,12.10
2014,09,13,02,33,12.10
2014,09,13,02,34,12.00
2014,09,13,02,35,12.00
2014,09,13,02,36,12.00
2014,09,13,02,37,11.90
2014,09,13,02,38,11.90
2014,09,13,02,39,11.80
2014,09,13,02,40,11.80
2014,09,13,02,41,11.80
2014,09,13,02,42,11.80
2014,09,13,02,43,11.70
2014,09,13,02,44,11.70
2014,09,13,02,45,11.60
2014,09,13,02,46,11.60
2014,09,13,02,47,11.60
2014,09,13,02,48,11.60
2014,09,13,02,49,11.60
2014,09,13,02,50,11.60
2014,09,13,02,51,11.50
2014,09,13,02,52,11.40
2014,09,13,02,53,11.40
2014,09,13,02,54,11.40
2014,09,13,02,55,11.40
2014,09,13,02,56,11.40
2014,09,13,02,57,11.40
2014,09,13,02,58,11.40
2014,09,13,02,59,11.40
2014,09,13,03,00,11.40
2014,09,13,03,01,11.40
2014,09,13,03,02,11.30
2014,09,13,03,03,11.30
2014,09,13,03,04,11.30
2014,09,13,03,05,11.30
2014,09,13,03,06,11.30
2014,09,13,03,07,11.30
2014,09,13,03,08,11.30
2014,09,13,03,09,11.20
2014,09,13,03,10,11.20
2014,09,13,03,11,11.20
2014,09,13,03,12,11.10
2014,09,13,03,13,11.10
2014,09,13,03,14,11.10
2014,09,13,03,15,11.10
2014,09,13,03,16,11.10
2014,09,13,03,17,11.10
2014,09,13,03,18,11.00
2014,09,13,03,19,10.90
2014,09,13,03,20,10.90
2014,09,13,03,21,10.90
2014,09,13,03,22,10.90
2014,09,13,03,23,10.90
2014,09,13,03,24,10.90
2014,09,13,03,25,10.90
2014,09,13,03,26,10.90
2014,09,13,03,27,10.80
2014,09,13,03,28,10.80
2014,09,13,03,29,10.80
2014,09,13,03,30,10.70
2014,09,13,03,31,10.70
2014,09,13,03,32,10.70
2014,09,13,03,33,10.60
2014,09,13,03,34,10.60
2014,09,13,03,35,10.60
2014,09,13,03,36,10.60
2014,09,13,03,37,10.60
2014,09,13,03,38,10.60
2014,09,13,03,39,10.60
2014,09,13,03,40,10.60
2014,09,13,03,41,10.50
2014,09,13,03,42,10.40
2014,09,13,03,43,10.40
2014,09,13,03,44,10.40
2014,09,13,03,45,10.40
2014,09,13,03,46,10.40
2014,09,13,03,47,10.40
2014,09,13,03,48,10.40
2014,09,13,03,49,10.40
2014,09,13,03,50,10.40
2014,09,13,03,51,10.40
2014,09,13,03,52,10.40
2014,09,13,03,53,10.40
2014,09,13,03,54,10.40
2014,09,13,03,55,10.40
2014,09,13,03,56,10.50
2014,09,13,03,57,10.60
2014,09,13,03,58,10.70
2014,09,13,03,59,10.90
2014,09,13,04,00,11.10
2014,09,13,04,01,11.40
2014,09,13,04,02,11.70
2014,09,13,04,03,11.90
2014,09,13,04,04,12.10
2014,09,13,04,05,12.40
2014,09,13,04,06,12.70
2014,09,13,04,07,13.00
2014,09,13,04,08,13.30
2014,09,13,04,09,13.50
2014,09,13,04,10,13.70
2014,09,13,04,11,13.90
2014,09,13,04,12,14.10
2014,09,13,04,13,14.20
2014,09,13,04,14,14.40
2014,09,13,04,15,14.50
2014,09,13,04,16,14.60
2014,09,13,04,17,14.70
2014,09,13,04,18,14.80
2014,09,13,04,19,14.80
2014,09,13,04,20,14.80
2014,09,13,04,21,14.90
2014,09,13,04,22,14.90
2014,09,13,04,23,15.00
2014,09,13,04,24,15.00
2014,09,13,04,25,15.00
2014,09,13,04,26,15.00
2014,09,13,04,27,15.10
2014,09,13,04,28,15.10
2014,09,13,04,29,15.10
2014,09,13,04,30,15.20
2014,09,13,04,31,15.20
2014,09,13,04,32,15.20
2014,09,13,04,33,15.20
2014,09,13,04,34,15.30
2014,09,13,04,35,15.30
2014,09,13,04,36,15.30
2014,09,13,04,37,15.30
2014,09,13,04,38,15.30
2014,09,13,04,39,15.30
2014,09,13,04,40,15.30
2014,09,13,04,41,15.30
2014,09,13,04,42,15.30
2014,09,13,04,43,15.30
2014,09,13,04,44,15.40
2014,09,13,04,45,15.50
2014,09,13,04,46,15.50
2014,09,13,04,47,15.50
2014,09,13,04,48,15.60
2014,09,13,04,49,15.60
2014,09,13,04,50,15.60
2014,09,13,04,51,15.70
2014,09,13,04,52,15.70
2014,09,13,04,53,15.70
2014,09,13,04,54,15.70
2014,09,13,04,55,15.60
2014,09,13,04,56,15.60
2014,09,13,04,57,15.60
2014,09,13,04,58,15.50
2014,09,13,04,59,15.50
2014,09,13,05,00,15.50
2014,09,13,05,01,15.40
2014,09,13,05,02,15.30
2014,09,13,05,03,15.30
2014,09,13,05,04,15.30
2014,09,13,05,05,15.30
2014,09,13,05,06,15.30
2014,09,13,05,07,15.30
2014,09,13,05,08,15.30
2014,09,13,05,09,15.30
2014,09,13,05,10,15.30
2014,09,13,05,11,15.40
2014,09,13,05,12,15.40
2014,09,13,05,13,15.50
2014,09,13,05,14,15.50
2014,09,13,05,15,15.60
2014,09,13,05,16,15.60
2014,09,13,05,17,15.70
2014,09,13,05,18,15.70
2014,09,13,05,19,15.70
2014,09,13,05,20,15.70
2014,09,13,05,21,15.70
2014,09,13,05,22,15.70
2014,09,13,05,23,15.80
2014,09,13,05,24,15.80
2014,09,13,05,25,15.80
2014,09,13,05,26,15.80
2014,09,13,05,27,15.80
2014,09,13,05,28,15.80
2014,09,13,05,29,15.80
2014,09,13,05,30,15.80
2014,09,13,05,31,15.80
2014,09,13,05,32,15.80
2014,09,13,05,33,15.80
2014,09,13,05,34,15.70
2014,09,13,05,35,15.70
2014,09,13,05,36,15.70
2014,09,13,05,37,15.70
2014,09,13,05,38,15.70
2014,09,13,05,39,15.80
2014,09,13,05,40,15.80
2014,09,13,05,41,15.80
2014,09,13,05,42,15.80
2014,09,13,05,43,15.80
2014,09,13,05,44,15.80
2014,09,13,05,45,15.80
2014,09,13,05,46,15.90
2014,09,13,05,47,15.90
2014,09,13,05,48,15.90
2014,09,13,05,49,15.90
2014,09,13,05,50,15.90
2014,09,13,05,51,15.80
2014,09,13,05,52,15.80
2014,09,13,05,53,15.80
2014,09,13,05,54,15.80
2014,09,13,05,55,15.80
2014,09,13,05,56,15.80
2014,09,13,05,57,15.80
2014,09,13,05,58,15.80
2014,09,13,05,59,15.80
2014,09,13,06,00,15.80
2014,09,13,06,01,15.70
2014,09,13,06,02,15.70
2014,09,13,06,03,15.60
2014,09,13,06,04,15.60
2014,09,13,06,05,15.60
2014,09,13,06,06,15.60
2014,09,13,06,07,15.50
2014,09,13,06,08,15.50
2014,09,13,06,09,15.50
2014,09,13,06,10,15.50
2014,09,13,06,11,15.50
2014,09,13,06,12,15.50
2014,09,13,06,13,15.50
2014,09,13,06,14,15.50
2014,09,13,06,15,15.50
2014,09,13,06,16,15.60
2014,09,13,06,17,15.60
2014,09,13,06,18,15.60
2014,09,13,06,19,15.60
2014,09,13,06,20,15.60
2014,09,13,06,21,15.50
2014,09,13,06,22,15.50
2014,09,13,06,23,15.50
2014,09,13,06,24,15.40
2014,09,13,06,25,15.40
2014,09,13,06,26,15.30
2014,09,13,06,27,15.30
2014,09,13,06,28,15.30
2014,09,13,06,29,15.30
2014,09,13,06,30,15.20
2014,09,13,06,31,15.20
2014,09,13,06,32,15.20
2014,09,13,06,33,15.20
2014,09,13,06,34,15.20
2014,09,13,06,35,15.20
2014,09,13,06,36,15.10
2014,09,13,06,37,15.10
2014,09,13,06,38,15.10
2014,09,13,06,39,15.10
2014,09,13,06,40,15.10
2014,09,13,06,41,15.10
2014,09,13,06,42,15.10
2014,09,13,06,43,15.10
2014,09,13,06,44,15.10
2014,09,13,06,45,15.10
2014,09,13,06,46,15.10
2014,09,13,06,47,15.10
2014,09,13,06,48,15.10
2014,09,13,06,49,15.20
2014,09,13,06,50,15.20
2014,09,13,06,51,15.20
2014,09,13,06,52,15.20
2014,09,13,06,53,15.20
2014,09,13,06,54,15.30
2014,09,13,06,55,15.30
2014,09,13,06,56,15.30
2014,09,13,06,57,15.30
2014,09,13,06,58,15.30
2014,09,13,06,59,15.30
2014,09,13,07,00,15.30
2014,09,13,07,01,15.30
2014,09,13,07,02,15.30
2014,09,13,07,03,15.30
2014,09,13,07,04,15.30
2014,09,13,07,05,15.30
2014,09,13,07,06,15.30
2014,09,13,07,07,15.30
2014,09,13,07,08,15.40
2014,09,13,07,09,15.40
2014,09,13,07,10,15.50
2014,09,13,07,11,15.50
2014,09,13,07,12,15.50
2014,09,13,07,13,15.50
2014,09,13,07,14,15.60
2014,09,13,07,15,15.60
2014,09,13,07,16,15.60
2014,09,13,07,17,15.60
2014,09,13,07,18,15.70
2014,09,13,07,19,15.70
2014,09,13,07,20,15.70
2014,09,13,07,21,15.80
2014,09,13,07,22,15.80
2014,09,13,07,23,15.80
2014,09,13,07,24,15.80
2014,09,13,07,25,15.80
2014,09,13,07,26,15.80
2014,09,13,07,27,15.80
2014,09,13,07,28,15.90
2014,09,13,07,29,15.90
2014,09,13,07,30,15.90
2014,09,13,07,31,15.90
2014,09,13,07,32,15.90
2014,09,13,07,33,15.90
2014,09,13,07,34,16.00
2014,09,13,07,35,16.10
2014,09,13,07,36,16.10
2014,09,13,07,37,16.10
2014,09,13,07,38,16.10
2014,09,13,07,39,16.10
2014,09,13,07,40,16.10
2014,09,13,07,41,16.10
2014,09,13,07,42,16.10
2014,09,13,07,43,16.10
2014,09,13,07,44,16.10
2014,09,13,07,45,16.10
2014,09,13,07,46,16.10
2014,09,13,07,47,16.10
2014,09,13,07,48,16.10
2014,09,13,07,49,16.10
2014,09,13,07,50,16.10
2014,09,13,07,51,16.10
2014,09,13,07,52,16.10
2014,09,13,07,53,16.10
2014,09,13,07,54,16.10
2014,09,13,07,55,16.10
2014,09,13,07,56,16.10
2014,09,13,07,57,16.10
2014,09,13,07,58,16.10
2014,09,13,07,59,16.20
2014,09,13,08,00,16.20
2014,09,13,08,01,16.20
2014,09,13,08,02,16.10
2014,09,13,08,03,16.10
2014,09,13,08,04,16.10
2014,09,13,08,05,16.10
2014,09,13,08,06,16.10
2014,09,13,08,07,16.10
2014,09,13,08,08,16.10
2014,09,13,08,09,16.10
2014,09,13,08,10,16.10
2014,09,13,08,11,16.10
2014,09,13,08,12,16.10
2014,09,13,08,13,16.10
2014,09,13,08,14,16.20
2014,09,13,08,15,16.20
2014,09,13,08,16,16.20
2014,09,13,08,17,16.20
2014,09,13,08,18,16.20
2014,09,13,08,19,16.20
2014,09,13,08,20,16.20
2014,09,13,08,21,16.30
2014,09,13,08,22,16.30
2014,09,13,08,23,16.30
2014,09,13,08,24,16.40
2014,09,13,08,25,16.40
2014,09,13,08,26,16.40
2014,09,13,08,27,16.40
2014,09,13,08,28,16.40
2014,09,13,08,29,16.50
2014,09,13,08,30,16.60
2014,09,13,08,31,16.60
2014,09,13,08,32,16.70
2014,09,13,08,33,16.70
2014,09,13,08,34,16.70
2014,09,13,08,35,16.70
2014,09,13,08,36,16.70
2014,09,13,08,37,16.80
2014,09,13,08,38,16.80
2014,09,13,08,39,16.80
2014,09,13,08,40,16.80
2014,09,13,08,41,16.80
2014,09,13,08,42,16.90
2014,09,13,08,43,16.90
2014,09,13,08,44,17.00
2014,09,13,08,45,17.00
2014,09,13,08,46,17.00
2014,09,13,08,47,17.00
2014,09,13,08,48,17.10
2014,09,13,08,49,17.10
2014,09,13,08,50,17.10
2014,09,13,08,51,17.20
2014,09,13,08,52,17.20
2014,09,13,08,53,17.20
2014,09,13,08,54,17.20
2014,09,13,08,55,17.20
2014,09,13,08,56,17.20
2014,09,13,08,57,17.30
2014,09,13,08,58,17.30
2014,09,13,08,59,17.30
2014,09,13,09,00,17.30
2014,09,13,09,01,17.30
2014,09,13,09,02,17.30
2014,09,13,09,03,17.30
2014,09,13,09,04,17.30
2014,09,13,09,05,17.30
2014,09,13,09,06,17.30
2014,09,13,09,07,17.30
2014,09,13,09,08,17.30
2014,09,13,09,09,17.30
2014,09,13,09,10,17.30
2014,09,13,09,11,17.30
2014,09,13,09,12,17.30
2014,09,13,09,13,17.30
2014,09,13,09,14,17.30
2014,09,13,09,15,17.30
2014,09,13,09,16,17.30
2014,09,13,09,17,17.30
2014,09,13,09,18,17.30
2014,09,13,09,19,17.40
2014,09,13,09,20,17.40
2014,09,13,09,21,17.50
2014,09,13,09,22,17.60
2014,09,13,09,23,17.70
2014,09,13,09,24,17.70
2014,09,13,09,25,17.80
2014,09,13,09,26,17.80
2014,09,13,09,27,17.80
2014,09,13,09,28,17.80
2014,09,13,09,29,17.80
2014,09,13,09,30,17.80
2014,09,13,09,31,17.90
2014,09,13,09,32,17.90
2014,09,13,09,33,17.90
2014,09,13,09,34,17.90
2014,09,13,09,35,17.90
2014,09,13,09,36,17.90
2014,09,13,09,37,17.90
2014,09,13,09,38,17.90
2014,09,13,09,39,17.90
2014,09,13,09,40,17.90
2014,09,13,09,41,17.90
2014,09,13,09,42,17.90
2014,09,13,09,43,18.00
2014,09,13,09,44,18.10
2014,09,13,09,45,18.10
2014,09,13,09,46,18.10
2014,09,13,09,47,18.10
2014,09,13,09,48,18.20
2014,09,13,09,49,18.20
2014,09,13,09,50,18.20
2014,09,13,09,51,18.20
2014,09,13,09,52,18.20
2014,09,13,09,53,18.20
2014,09,13,09,54,18.30
2014,09,13,09,55,18.30
2014,09,13,09,56,18.30
2014,09,13,09,57,18.30
2014,09,13,09,58,18.30
2014,09,13,09,59,18.20
2014,09,13,10,00,18.20
2014,09,13,10,01,18.20
2014,09,13,10,02,18.20
2014,09,13,10,03,18.30
2014,09,13,10,04,18.30
2014,09,13,10,05,18.40
2014,09,13,10,06,18.40
2014,09,13,10,07,18.50
2014,09,13,10,08,18.50
2014,09,13,10,09,18.50
2014,09,13,10,10,18.50
2014,09,13,10,11,18.40
2014,09,13,10,12,18.40
2014,09,13,10,13,18.40
2014,09,13,10,14,18.40
2014,09,13,10,15,18.50
2014,09,13,10,16,18.50
2014,09,13,10,17,18.60
2014,09,13,10,18,18.50
2014,09,13,10,19,18.50
2014,09,13,10,20,18.50
2014,09,13,10,21,18.60
2014,09,13,10,22,18.60
2014,09,13,10,23,18.70
2014,09,13,10,24,18.70
2014,09,13,10,25,18.70
2014,09,13,10,26,18.70
2014,09,13,10,27,18.80
2014,09,13,10,28,18.80
2014,09,13,10,29,18.90
2014,09,13,10,30,18.90
2014,09,13,10,31,18.90
2014,09,13,10,32,18.90
2014,09,13,10,33,18.90
2014,09,13,10,34,18.90
2014,09,13,10,35,18.90
2014,09,13,10,36,18.90
2014,09,13,10,37,18.90
2014,09,13,10,38,18.90
2014,09,13,10,39,19.00
2014,09,13,10,40,19.10
2014,09,13,10,41,19.10
2014,09,13,10,42,19.10
2014,09,13,10,43,19.10
2014,09,13,10,44,19.20
2014,09,13,10,45,19.20
2014,09,13,10,46,19.30
2014,09,13,10,47,19.40
2014,09,13,10,48,19.50
2014,09,13,10,49,19.50
2014,09,13,10,50,19.60
2014,09,13,10,51,19.60
2014,09,13,10,52,19.70
2014,09,13,10,53,19.70
2014,09,13,10,54,19.70
2014,09,13,10,55,19.70
2014,09,13,10,56,19.80
2014,09,13,10,57,19.90
2014,09,13,10,58,19.90
2014,09,13,10,59,20.00
2014,09,13,11,00,20.10
2014,09,13,11,01,20.10
2014,09,13,11,02,20.10
2014,09,13,11,03,20.10
2014,09,13,11,04,20.00
2014,09,13,11,05,20.10
2014,09,13,11,06,20.10
2014,09,13,11,07,20.10
2014,09,13,11,08,20.10
2014,09,13,11,09,20.10
2014,09,13,11,10,20.10
2014,09,13,11,11,20.20
2014,09,13,11,12,20.20
2014,09,13,11,13,20.20
2014,09,13,11,14,20.20
2014,09,13,11,15,20.20
2014,09,13,11,16,20.30
2014,09,13,11,17,20.30
2014,09,13,11,18,20.30
2014,09,13,11,19,20.40
2014,09,13,11,20,20.40
2014,09,13,11,21,20.50
2014,09,13,11,22,20.50
2014,09,13,11,23,20.50
2014,09,13,11,24,20.50
2014,09,13,11,25,20.50
2014,09,13,11,26,20.50
2014,09,13,11,27,20.60
2014,09,13,11,28,20.50
2014,09,13,11,29,20.50
2014,09,13,11,30,20.40
2014,09,13,11,31,20.40
2014,09,13,11,32,20.40
2014,09,13,11,33,20.40
2014,09,13,11,34,20.40
2014,09,13,11,35,20.40
2014,09,13,11,36,20.50
2014,09,13,11,37,20.50
2014,09,13,11,38,20.50
2014,09,13,11,39,20.50
2014,09,13,11,40,20.50
2014,09,13,11,41,20.50
2014,09,13,11,42,20.60
2014,09,13,11,43,20.60
2014,09,13,11,44,20.70
2014,09,13,11,45,20.80
2014,09,13,11,46,20.80
2014,09,13,11,47,20.80
2014,09,13,11,48,20.90
2014,09,13,11,49,20.90
2014,09,13,11,50,20.90
2014,09,13,11,51,20.90
2014,09,13,11,52,20.90
2014,09,13,11,53,20.90
2014,09,13,11,54,20.90
2014,09,13,11,55,20.90
2014,09,13,11,56,20.90
2014,09,13,11,57,20.90
2014,09,13,11,58,20.90
2014,09,13,11,59,21.00
2014,09,13,12,00,21.00
2014,09,13,12,01,21.10
2014,09,13,12,02,21.10
2014,09,13,12,03,21.10
2014,09,13,12,04,21.10
2014,09,13,12,05,21.20
2014,09,13,12,06,21.20
2014,09,13,12,07,21.20
2014,09,13,12,08,21.20
2014,09,13,12,09,21.20
2014,09,13,12,10,21.20
2014,09,13,12,11,21.20
2014,09,13,12,12,21.20
2014,09,13,12,13,21.30
2014,09,13,12,14,21.30
2014,09,13,12,15,21.30
2014,09,13,12,16,21.30
2014,09,13,12,17,21.40
2014,09,13,12,18,21.40
2014,09,13,12,19,21.40
2014,09,13,12,20,21.40
2014,09,13,12,21,21.50
2014,09,13,12,22,21.60
2014,09,13,12,23,21.50
2014,09,13,12,24,21.40
2014,09,13,12,25,21.40
2014,09,13,12,26,21.40
2014,09,13,12,27,21.40
2014,09,13,12,28,21.40
2014,09,13,12,29,21.60
2014,09,13,12,30,21.60
2014,09,13,12,31,21.60
2014,09,13,12,32,21.60
2014,09,13,12,33,21.60
2014,09,13,12,34,21.60
2014,09,13,12,35,21.60
2014,09,13,12,36,21.60
2014,09,13,12,37,21.60
2014,09,13,12,38,21.70
2014,09,13,12,39,21.80
2014,09,13,12,40,21.80
2014,09,13,12,41,21.80
2014,09,13,12,42,21.80
2014,09,13,12,43,21.70
2014,09,13,12,44,21.70
2014,09,13,12,45,21.70
2014,09,13,12,46,21.60
2014,09,13,12,47,21.60
2014,09,13,12,48,21.60
2014,09,13,12,49,21.60
2014,09,13,12,50,21.70
2014,09,13,12,51,21.70
2014,09,13,12,52,21.80
2014,09,13,12,53,21.80
2014,09,13,12,54,21.80
2014,09,13,12,55,21.80
2014,09,13,12,56,21.90
2014,09,13,12,57,21.90
2014,09,13,12,58,21.90
2014,09,13,12,59,21.80
2014,09,13,13,00,21.70
2014,09,13,13,01,21.70
2014,09,13,13,02,21.70
2014,09,13,13,03,21.70
2014,09,13,13,04,21.70
2014,09,13,13,05,21.70
2014,09,13,13,06,21.70
2014,09,13,13,07,21.70
2014,09,13,13,08,21.80
2014,09,13,13,09,21.80
2014,09,13,13,10,21.90
2014,09,13,13,11,21.90
2014,09,13,13,12,22.00
2014,09,13,13,13,22.00
2014,09,13,13,14,22.00
2014,09,13,13,15,22.00
2014,09,13,13,16,22.00
2014,09,13,13,17,22.00
2014,09,13,13,18,22.00
2014,09,13,13,19,22.00
2014,09,13,13,20,22.00
2014,09,13,13,21,22.00
2014,09,13,13,22,21.90
2014,09,13,13,23,21.90
2014,09,13,13,24,21.90
2014,09,13,13,25,22.00
2014,09,13,13,26,22.00
2014,09,13,13,27,22.10
2014,09,13,13,28,22.20
2014,09,13,13,29,22.30
2014,09,13,13,30,22.20
2014,09,13,13,31,22.20
2014,09,13,13,32,22.20
2014,09,13,13,33,22.20
2014,09,13,13,34,22.20
2014,09,13,13,35,22.30
2014,09,13,13,36,22.30
2014,09,13,13,37,22.30
2014,09,13,13,38,22.20
2014,09,13,13,39,22.30
2014,09,13,13,40,22.30
2014,09,13,13,41,22.30
2014,09,13,13,42,22.40
2014,09,13,13,43,22.50
2014,09,13,13,44,22.60
2014,09,13,13,45,22.60
2014,09,13,13,46,22.70
2014,09,13,13,47,22.70
2014,09,13,13,48,22.80
2014,09,13,13,49,22.80
2014,09,13,13,50,22.90
2014,09,13,13,51,22.90
2014,09,13,13,52,23.00
2014,09,13,13,53,23.10
2014,09,13,13,54,23.00
2014,09,13,13,55,22.90
2014,09,13,13,56,22.90
2014,09,13,13,57,22.80
2014,09,13,13,58,22.70
2014,09,13,13,59,22.70
2014,09,13,14,00,22.60
2014,09,13,14,01,22.50
2014,09,13,14,02,22.50
2014,09,13,14,03,22.50
2014,09,13,14,04,22.50
2014,09,13,14,05,22.50
2014,09,13,14,06,22.50
2014,09,13,14,07,22.50
2014,09,13,14,08,22.60
2014,09,13,14,09,22.70
2014,09,13,14,10,22.70
2014,09,13,14,11,22.80
2014,09,13,14,12,22.80
2014,09,13,14,13,22.70
2014,09,13,14,14,22.70
2014,09,13,14,15,22.60
2014,09,13,14,16,22.60
2014,09,13,14,17,22.70
2014,09,13,14,18,22.70
2014,09,13,14,19,22.70
2014,09,13,14,20,22.70
2014,09,13,14,21,22.60
2014,09,13,14,22,22.60
2014,09,13,14,23,22.60
2014,09,13,14,24,22.70
2014,09,13,14,25,22.70
2014,09,13,14,26,22.70
2014,09,13,14,27,22.80
2014,09,13,14,28,22.80
2014,09,13,14,29,22.90
2014,09,13,14,30,22.80
2014,09,13,14,31,22.90
2014,09,13,14,32,22.90
2014,09,13,14,33,22.90
2014,09,13,14,34,22.90
2014,09,13,14,35,23.00
2014,09,13,14,36,23.10
2014,09,13,14,37,23.10
2014,09,13,14,38,23.10
2014,09,13,14,39,23.20
2014,09,13,14,40,23.30
2014,09,13,14,41,23.30
2014,09,13,14,42,23.40
2014,09,13,14,43,23.60
2014,09,13,14,44,23.70
2014,09,13,14,45,23.70
2014,09,13,14,46,23.70
2014,09,13,14,47,23.70
2014,09,13,14,48,23.60
2014,09,13,14,49,23.50
2014,09,13,14,50,23.40
2014,09,13,14,51,23.30
2014,09,13,14,52,23.30
2014,09,13,14,53,23.30
2014,09,13,14,54,23.30
2014,09,13,14,55,23.30
2014,09,13,14,56,23.30
2014,09,13,14,57,23.30
2014,09,13,14,58,23.30
2014,09,13,14,59,23.30
2014,09,13,15,00,23.30
2014,09,13,15,01,23.30
2014,09,13,15,02,23.30
2014,09,13,15,03,23.30
2014,09,13,15,04,23.30
2014,09,13,15,05,23.30
2014,09,13,15,06,23.40
2014,09,13,15,07,23.40
2014,09,13,15,08,23.40
2014,09,13,15,09,23.50
2014,09,13,15,10,23.60
2014,09,13,15,11,23.60
2014,09,13,15,12,23.70
2014,09,13,15,13,23.70
2014,09,13,15,14,23.80
2014,09,13,15,15,23.80
2014,09,13,15,16,23.80
2014,09,13,15,17,23.80
2014,09,13,15,18,23.80
2014,09,13,15,19,23.70
2014,09,13,15,20,23.70
2014,09,13,15,21,23.70
2014,09,13,15,22,23.70
2014,09,13,15,23,23.70
2014,09,13,15,24,23.70
2014,09,13,15,25,23.70
2014,09,13,15,26,23.80
2014,09,13,15,27,23.80
2014,09,13,15,28,23.80
2014,09,13,15,29,23.90
2014,09,13,15,30,23.90
2014,09,13,15,31,24.10
2014,09,13,15,32,24.10
2014,09,13,15,33,24.10
2014,09,13,15,34,24.10
2014,09,13,15,35,24.10
2014,09,13,15,36,24.10
2014,09,13,15,37,24.10
2014,09,13,15,38,24.10
2014,09,13,15,39,24.10
2014,09,13,15,40,24.10
2014,09,13,15,41,24.10
2014,09,13,15,42,24.10
2014,09,13,15,43,24.10
2014,09,13,15,44,24.20
2014,09,13,15,45,24.20
2014,09,13,15,46,24.20
2014,09,13,15,47,24.20
2014,09,13,15,48,24.30
2014,09,13,15,49,24.30
2014,09,13,15,50,24.30
2014,09,13,15,51,24.30
2014,09,13,15,52,24.30
2014,09,13,15,53,24.40
2014,09,13,15,54,24.30
2014,09,13,15,55,24.30
2014,09,13,15,56,24.20
2014,09,13,15,57,24.20
2014,09,13,15,58,24.10
2014,09,13,15,59,24.10
2014,09,13,16,00,24.10
2014,09,13,16,01,24.10
2014,09,13,16,02,24.20
2014,09,13,16,03,24.20
2014,09,13,16,04,24.20
2014,09,13,16,05,24.20
2014,09,13,16,06,24.30
2014,09,13,16,07,24.30
2014,09,13,16,08,24.20
2014,09,13,16,09,24.20
2014,09,13,16,10,24.20
2014,09,13,16,11,24.20
2014,09,13,16,12,24.30
2014,09,13,16,13,24.30
2014,09,13,16,14,24.30
2014,09,13,16,15,24.40
2014,09,13,16,16,24.40
2014,09,13,16,17,24.40
2014,09,13,16,18,24.50
2014,09,13,16,19,24.50
2014,09,13,16,20,24.50
2014,09,13,16,21,24.50
2014,09,13,16,22,24.50
2014,09,13,16,23,24.50
2014,09,13,16,24,24.50
2014,09,13,16,25,24.40
2014,09,13,16,26,24.40
2014,09,13,16,27,24.40
2014,09,13,16,28,24.40
2014,09,13,16,29,24.40
2014,09,13,16,30,24.40
2014,09,13,16,31,24.40
2014,09,13,16,32,24.40
2014,09,13,16,33,24.50
2014,09,13,16,34,24.50
2014,09,13,16,35,24.40
2014,09,13,16,36,24.40
2014,09,13,16,37,24.40
2014,09,13,16,38,24.30
2014,09,13,16,39,24.30
2014,09,13,16,40,24.30
2014,09,13,16,41,24.30
2014,09,13,16,42,24.30
2014,09,13,16,43,24.30
2014,09,13,16,44,24.30
2014,09,13,16,45,24.40
2014,09,13,16,46,24.40
2014,09,13,16,47,24.40
2014,09,13,16,48,24.40
2014,09,13,16,49,24.40
2014,09,13,16,50,24.40
2014,09,13,16,51,24.40
2014,09,13,16,52,24.50
2014,09,13,16,53,24.50
2014,09,13,16,54,24.50
2014,09,13,16,55,24.50
2014,09,13,16,56,24.50
2014,09,13,16,57,24.50
2014,09,13,16,58,24.50
2014,09,13,16,59,24.50
2014,09,13,17,00,24.50
2014,09,13,17,01,24.50
2014,09,13,17,02,24.50
2014,09,13,17,03,24.50
2014,09,13,17,04,24.50
2014,09,13,17,05,24.40
2014,09,13,17,06,24.40
2014,09,13,17,07,24.40
2014,09,13,17,08,24.30
2014,09,13,17,09,24.30
2014,09,13,17,10,24.20
2014,09,13,17,11,24.20
2014,09,13,17,12,24.20
2014,09,13,17,13,24.20
2014,09,13,17,14,24.30
2014,09,13,17,15,24.20
2014,09,13,17,16,24.20
2014,09,13,17,17,24.10
2014,09,13,17,18,24.10
2014,09,13,17,19,24.20